Location: Unspecified
(35.7250°N, 0.0000°E)
Time: 20:18:01
(UTC+00:00)

Courier 1B Rocket - Pass Details

Date: 13 August 2020
Orbit: 920 x 1202 km, 28.2° (Epoch: 01 October)

Event Time Altitude Azimuth Distance (km) Brightness Sun altitude
Exits shadow 03:39:19 31° 228° (SW) 1,602 5.6 -18.6°
Maximum altitude 03:41:47 44° 180° (S) 1,303 5.4 -18.2°
Drops below altitude 10° 03:48:04 10° 110° (ESE) 2,779 7.9 -17.2°
Sets 03:50:58 0° 104° (ESE) 3,775 8.7 -16.7°
